Regional Weather Roundup
Issued by NWS Tiyan, Guam

Home | Current Version | Previous Version | Text Only | Print | Product List | Glossary On
Versions: 1 2 3 4 5 6 7 8 9 10 11 12 13 14 15 16 17 18 19 20 21 22 23 24 25 26 27 28 29 30 31 32 33 34 35 36 37 38 39 40 41 42 43 44 45 46 47 48 49 50
000
ASGM40 PGUM 032014
RWRGUM
WEATHER ROUNDUP FOR THE MARIANAS
NATIONAL WEATHER SERVICE TIYAN GU
600 AM CHST TUE AUG 04 2015

GUZ001>004-032100-
MARIANA ISLANDS-

CITY           SKY/WX    TMP DP  RH WIND       PRES   REMARKS
GUAM AIRPORT   CLEAR     79  77  94 S6        29.63S
ANDERSEN AFB   LGT RAIN  77  75  94 S15       29.64S FOG
ROTA AIRPORT   MOCLDY    79  75  89 S9        29.63
TINIAN AP      NOT AVBL
SAIPAN AP      NOT AVBL

$$




USA.gov is the U.S. government's official web portal to all federal, state and local government web resources and services.